Stündliche Wetter a/p Chisinau International Airport

Heute, 22 Juni, Dienstag

Zeit Temperatur Niederschläge Wind Luftdruck Luftfeuchtigkeit
00:00 +21°C° 0 mm 0 m/S 755 mmHg 77%
01:00 +23°C° 0 mm 1 m/S 755 mmHg 78%
02:00 +22°C° 0 mm 1 m/S 755 mmHg 80%
03:00 +22°C° 0.1 mm 1 m/S 754 mmHg 81%
04:00 +21°C° 0.1 mm 2 m/S 754 mmHg 82%
05:00 +21°C° 0.1 mm 2 m/S 754 mmHg 83%
06:00 +23°C° 0 mm 2 m/S 754 mmHg 80%
07:00 +25°C° 0 mm 3 m/S 754 mmHg 77%
08:00 +26°C° 0 mm 3 m/S 754 mmHg 73%
09:00 +27°C° 0.9 mm 3 m/S 754 mmHg 69%
10:00 +29°C° 0.9 mm 3 m/S 754 mmHg 65%
11:00 +30°C° 0.9 mm 3 m/S 754 mmHg 61%
12:00 +30°C° 0.8 mm 3 m/S 754 mmHg 58%
13:00 +31°C° 0.8 mm 2 m/S 754 mmHg 55%
14:00 +31°C° 0.8 mm 1 m/S 754 mmHg 52%
15:00 +31°C° 0 mm 2 m/S 754 mmHg 54%
16:00 +31°C° 0 mm 2 m/S 754 mmHg 57%
17:00 +31°C° 0 mm 2 m/S 754 mmHg 59%
18:00 +29°C° 0 mm 2 m/S 754 mmHg 63%
19:00 +28°C° 0 mm 2 m/S 754 mmHg 67%
20:00 +27°C° 0 mm 2 m/S 754 mmHg 71%
21:00 +27°C° 0.1 mm 2 m/S 754 mmHg 73%
22:00 +26°C° 0.1 mm 1 m/S 755 mmHg 75%
23:00 +25°C° 0.1 mm 1 m/S 755 mmHg 77%

Morgen, 23 Juni, Mittwoch

Zeit Temperatur Niederschläge Wind Luftdruck Luftfeuchtigkeit
00:00 +25°C° 0 mm 1 m/S 755 mmHg 80%
01:00 +24°C° 0 mm 1 m/S 755 mmHg 83%
02:00 +21°C° 0 mm 0 m/S 755 mmHg 86%
03:00 +23°C° 0 mm 1 m/S 755 mmHg 87%
04:00 +23°C° 0 mm 1 m/S 755 mmHg 88%
05:00 +23°C° 0 mm 1 m/S 755 mmHg 89%
06:00 +24°C° 0.1 mm 1 m/S 756 mmHg 85%
07:00 +26°C° 0.1 mm 2 m/S 756 mmHg 81%
08:00 +27°C° 0.1 mm 2 m/S 756 mmHg 77%
09:00 +28°C° 0 mm 2 m/S 756 mmHg 73%
10:00 +29°C° 0 mm 2 m/S 756 mmHg 70%
11:00 +30°C° 0 mm 2 m/S 756 mmHg 66%
12:00 +31°C° 0.1 mm 2 m/S 756 mmHg 63%
13:00 +31°C° 0.1 mm 1 m/S 756 mmHg 60%
14:00 +32°C° 0.1 mm 1 m/S 756 mmHg 56%
15:00 +32°C° 0.3 mm 2 m/S 756 mmHg 58%
16:00 +32°C° 0.3 mm 2 m/S 756 mmHg 60%
17:00 +31°C° 0.3 mm 3 m/S 756 mmHg 62%
18:00 +29°C° 1.2 mm 3 m/S 756 mmHg 69%
19:00 +26°C° 1.2 mm 3 m/S 757 mmHg 76%
20:00 +24°C° 1.2 mm 3 m/S 757 mmHg 83%
21:00 +23°C° 0.3 mm 2 m/S 757 mmHg 85%
22:00 +22°C° 0.3 mm 1 m/S 757 mmHg 86%
23:00 +21°C° 0.3 mm 1 m/S 757 mmHg 88%

übermorgen, 24 Juni, Donnerstag

Zeit Temperatur Niederschläge Wind Luftdruck Luftfeuchtigkeit
00:00 +22°C° 0.2 mm 1 m/S 757 mmHg 88%
01:00 +22°C° 0.2 mm 1 m/S 757 mmHg 88%
02:00 +21°C° 0.2 mm 2 m/S 757 mmHg 89%
03:00 +22°C° 0 mm 1 m/S 757 mmHg 88%
04:00 +22°C° 0 mm 1 m/S 757 mmHg 88%
05:00 +22°C° 0 mm 1 m/S 757 mmHg 88%
06:00 +24°C° 0 mm 1 m/S 757 mmHg 82%
07:00 +25°C° 0 mm 1 m/S 758 mmHg 76%
08:00 +27°C° 0 mm 1 m/S 758 mmHg 71%
09:00 +28°C° 0 mm 2 m/S 758 mmHg 66%
10:00 +30°C° 0 mm 2 m/S 757 mmHg 62%
11:00 +31°C° 0 mm 2 m/S 757 mmHg 57%
12:00 +32°C° 0 mm 2 m/S 757 mmHg 54%
13:00 +32°C° 0 mm 2 m/S 757 mmHg 52%
14:00 +34°C° 0 mm 2 m/S 757 mmHg 49%
15:00 +34°C° 0 mm 2 m/S 757 mmHg 50%
16:00 +34°C° 0 mm 2 m/S 757 mmHg 50%
17:00 +34°C° 0 mm 2 m/S 757 mmHg 51%
18:00 +31°C° 0 mm 2 m/S 757 mmHg 57%
19:00 +30°C° 0 mm 2 m/S 757 mmHg 62%
20:00 +28°C° 0 mm 1 m/S 757 mmHg 68%
21:00 +27°C° 0.1 mm 1 m/S 757 mmHg 70%
22:00 +27°C° 0.1 mm 1 m/S 757 mmHg 72%
23:00 +26°C° 0.1 mm 1 m/S 757 mmHg 74%

25 Juni, Freitag

Zeit Temperatur Niederschläge Wind Luftdruck Luftfeuchtigkeit
00:00 +26°C° 0 mm 2 m/S 757 mmHg 76%
01:00 +25°C° 0 mm 2 m/S 757 mmHg 78%
02:00 +25°C° 0 mm 2 m/S 757 mmHg 79%
03:00 +25°C° 0 mm 2 m/S 757 mmHg 81%
04:00 +25°C° 0 mm 2 m/S 757 mmHg 82%
05:00 +25°C° 0 mm 2 m/S 757 mmHg 84%
06:00 +26°C° 0 mm 2 m/S 757 mmHg 80%
07:00 +28°C° 0 mm 2 m/S 757 mmHg 75%
08:00 +29°C° 0 mm 3 m/S 757 mmHg 71%
09:00 +30°C° 0 mm 3 m/S 757 mmHg 67%
10:00 +31°C° 0 mm 3 m/S 757 mmHg 63%
11:00 +33°C° 0 mm 4 m/S 757 mmHg 59%
12:00 +33°C° 0 mm 4 m/S 757 mmHg 56%
13:00 +34°C° 0 mm 4 m/S 756 mmHg 54%
14:00 +34°C° 0 mm 4 m/S 756 mmHg 51%
15:00 +34°C° 0 mm 3 m/S 756 mmHg 52%
16:00 +34°C° 0 mm 3 m/S 756 mmHg 53%
17:00 +34°C° 0 mm 3 m/S 756 mmHg 53%
18:00 +31°C° 0 mm 2 m/S 756 mmHg 58%
19:00 +30°C° 0 mm 2 m/S 756 mmHg 63%
20:00 +28°C° 0 mm 1 m/S 756 mmHg 68%
21:00 +27°C° 0 mm 1 m/S 756 mmHg 70%
22:00 +27°C° 0 mm 1 m/S 756 mmHg 71%
23:00 +24°C° 0 mm 0 m/S 756 mmHg 72%

26 Juni, Samstag

Zeit Temperatur Niederschläge Wind Luftdruck Luftfeuchtigkeit
00:00 +26°C° 0 mm 1 m/S 756 mmHg 74%
01:00 +25°C° 0 mm 1 m/S 756 mmHg 76%
02:00 +25°C° 0 mm 2 m/S 756 mmHg 78%
03:00 +24°C° 0 mm 2 m/S 756 mmHg 80%
04:00 +24°C° 0 mm 2 m/S 756 mmHg 82%
05:00 +24°C° 0 mm 2 m/S 756 mmHg 83%
06:00 +25°C° 0 mm 2 m/S 756 mmHg 78%
07:00 +27°C° 0 mm 2 m/S 756 mmHg 73%
08:00 +29°C° 0 mm 3 m/S 756 mmHg 68%
09:00 +30°C° 0 mm 3 m/S 756 mmHg 65%
10:00 +31°C° 0 mm 3 m/S 756 mmHg 61%
11:00 +33°C° 0 mm 3 m/S 756 mmHg 57%
12:00 +34°C° 0 mm 2 m/S 756 mmHg 54%
13:00 +34°C° 0 mm 2 m/S 756 mmHg 51%
14:00 +35°C° 0 mm 2 m/S 755 mmHg 49%
15:00 +35°C° 0 mm 2 m/S 755 mmHg 49%
16:00 +35°C° 0 mm 2 m/S 755 mmHg 49%
17:00 +35°C° 0 mm 2 m/S 754 mmHg 49%
18:00 +32°C° 0.1 mm 2 m/S 754 mmHg 55%
19:00 +30°C° 0.1 mm 3 m/S 754 mmHg 62%
20:00 +28°C° 0.1 mm 3 m/S 755 mmHg 68%
21:00 +27°C° 0.8 mm 4 m/S 755 mmHg 75%
22:00 +25°C° 0.8 mm 4 m/S 755 mmHg 81%
23:00 +22°C° 0.8 mm 5 m/S 755 mmHg 88%

27 Juni, Sonntag

Zeit Temperatur Niederschläge Wind Luftdruck Luftfeuchtigkeit
00:00 +22°C° 0.3 mm 4 m/S 755 mmHg 89%
01:00 +21°C° 0.3 mm 3 m/S 756 mmHg 91%
02:00 +21°C° 0.3 mm 2 m/S 756 mmHg 93%
03:00 +20°C° 0 mm 2 m/S 756 mmHg 93%
04:00 +20°C° 0 mm 2 m/S 755 mmHg 93%
05:00 +20°C° 0 mm 2 m/S 755 mmHg 92%
06:00 +21°C° 0 mm 3 m/S 756 mmHg 89%
07:00 +24°C° 0 mm 3 m/S 756 mmHg 85%
08:00 +25°C° 0 mm 4 m/S 756 mmHg 81%
09:00 +26°C° 0 mm 4 m/S 756 mmHg 76%
10:00 +28°C° 0 mm 4 m/S 756 mmHg 71%
11:00 +29°C° 0 mm 4 m/S 756 mmHg 65%
12:00 +30°C° 0 mm 3 m/S 756 mmHg 62%
13:00 +30°C° 0 mm 3 m/S 756 mmHg 59%
14:00 +31°C° 0 mm 3 m/S 756 mmHg 56%
15:00 +31°C° 0 mm 3 m/S 756 mmHg 56%
16:00 +31°C° 0 mm 3 m/S 756 mmHg 57%
17:00 +31°C° 0 mm 3 m/S 756 mmHg 57%
18:00 +29°C° 0 mm 3 m/S 756 mmHg 64%
19:00 +28°C° 0 mm 3 m/S 756 mmHg 71%
20:00 +26°C° 0 mm 3 m/S 756 mmHg 78%
21:00 +25°C° 0 mm 3 m/S 757 mmHg 80%
22:00 +25°C° 0 mm 3 m/S 757 mmHg 82%
23:00 +24°C° 0 mm 2 m/S 757 mmHg 83%
Mehr zeigen

Wir brauchen deine Erlaubnis

Meteoprog und unser Service Anbieter werden persönliche Daten aufbewahren, so wie Cookies, Geräte Bezeichnung oder ähnliche Technologien von deinem Gerät und Prozess, so wie Persönliche Daten Inhalte und Werbungen, genauso wie social Media und den Verkehr zu analysieren.

  • Aufbewahrung und/oder Zugang zu deiner Geräte Informationen.

    Cookies, Geräte Bezeichnung oder andere Informationen, können aufbewahrt oder Zugang zu deinem Gerät erhalten, für den Grund, der oben angegeben wird.

  • Personalisierte Werbung und Inhalte, Messungen, Einblick in das Publikum und Produkt Entwicklung.

    Werbungen und Inhalte können personalisiert werden, basierend auf ein Profil. Mehr Daten können besser personalisierte Werbungen und Inhalte hinzufügen. Werbung und Inhalte können gezeigt und gemessen werden. Einblicke über das Publikum, welche die Werbung gesehen haben und den Inhalt, können abgeleitet werden. So wie Daten können genutzt werden, um es zu verbessern oder die Benutzer Erfahrung zu verbessern das System und die Software.

Wenn du “Ich stimme zu” klickst, erlaubst du uns, die Cookies zu benutzen die Geräte Bezeichnung, den Web oder ähnliche Technologien zu benutzen. Deine Settings, können in deinem Gerät bei deinem Browser geändert werden.

Für den bestimmten Zweck, berechtigten Interessen beruhen darauf, mehr als auf den Inhalt. Du kannst mehr darüber in unseren Privaten und Cookie Politik lesen.